GW7164 Weather Reports


time (UTC)temp
F
wind
direction
speed
knots
gust
knots
rain 1hr
in
rain 24hr
in
rain mn
in
humidity
%
barometer
mb
20260506170530 53 253 0.9 1.7 0.00 0.24 0.22 89 1006.9
20260506165529 53 240 1.7 3.5 0.00 0.24 0.22 88 1006.9
20260506164530 54 272 0.9 3.5 0.00 0.24 0.22 88 1006.8
20260506163550 54 258 1.7 2.6 0.00 0.24 0.22 87 1006.7
20260506162530 54 247 1.7 3.5 0.00 0.24 0.22 86 1006.7
20260506161529 54 0.0 0.0 0.00 0.24 0.22 89 1006.7
20260506160550 54 219 0.9 1.7 0.00 0.24 0.22 88 1006.8
20260506155530 53 222 0.9 1.7 0.00 0.24 0.22 89 1006.8
20260506154529 53 262 1.7 3.5 0.00 0.24 0.22 89 1006.8
20260506153530 53 214 1.7 4.3 0.00 0.24 0.22 89 1006.8
20260506152530 54 210 0.9 3.5 0.00 0.24 0.22 89 1006.8
20260506151530 53 210 0.9 1.7 0.00 0.24 0.22 89 1006.8
20260506150550 53 232 1.7 5.2 0.00 0.24 0.22 89 1006.7
20260506145530 53 231 0.9 2.6 0.00 0.24 0.22 90 1006.7
20260506144530 53 230 2.6 5.2 0.00 0.24 0.22 90 1006.7
20260506143529 53 229 2.6 6.1 0.02 0.24 0.22 90 1006.7
20260506142530 53 242 1.7 6.1 0.09 0.24 0.22 90 1006.7
20260506141610 53 234 1.7 4.3 0.09 0.24 0.22 91 1006.8
20260506140550 53 236 2.6 6.1 0.09 0.24 0.22 91 1006.7
20260506135542 53 237 1.7 3.5 0.09 0.24 0.22 91 1006.6
20260506134602 53 222 0.9 3.5 0.09 0.24 0.22 90 1006.5
20260506133529 53 198 0.9 2.6 0.08 0.22 0.20 91 1006.5
20260506132541 53 234 2.6 4.3 0.02 0.14 0.13 90 1006.5
20260506123548 54 234 1.7 4.3 0.09 0.14 0.13 91 1005.9
20260506122541 55 216 3.5 5.2 0.08 0.13 0.11 90 1005.7
20260506121548 55 233 2.6 5.2 0.05 0.09 0.08 91 1005.5
20260506120529 55 236 1.7 4.3 0.02 0.06 0.05 92 1005.4
20260506115528 56 217 2.6 5.2 0.02 0.06 0.05 89 1005.2
20260506105028 0 0.0 0.0 0.02 0.05 0.03
20260506102028 56 228 0.9 2.6 0.03 0.06 0.03 89 1004.9
20260506101028 56 234 2.6 4.3 0.03 0.06 0.03 88 1004.9
20260506100049 56 229 1.7 4.3 0.02 0.05 0.02 87 1004.9
20260506095029 56 246 1.7 2.6 0.02 0.05 0.02 86 1004.8
20260506094029 56 268 0.9 1.7 0.02 0.05 0.02 84 1004.7
20260506093053 57 278 1.7 3.5 0.00 0.03 0.00 84 1004.7
20260506092029 57 240 0.9 1.7 0.00 0.03 0.00 85 1004.6
20260506091049 56 246 0.9 1.7 0.00 0.03 0.00 85 1004.6
20260506090029 56 273 0.9 1.7 0.00 0.03 0.00 84 1004.5
20260506085029 56 273 0.9 1.7 0.00 0.03 0.00 84 1004.5
20260506084048 56 273 0.0 1.7 0.00 0.03 0.00 83 1004.5
20260506083041 56 270 0.9 1.7 0.00 0.03 0.00 84 1004.5
20260506082029 56 54 0.0 1.7 0.00 0.03 0.00 84 1004.5
20260506081029 56 52 0.0 1.7 0.00 0.03 0.00 84 1004.4
20260506073031 54 48 0.9 1.7 0.00 0.03 0.00 88 1004.5
20260506072031 54 48 0.9 1.7 0.00 0.03 0.00 89 1004.6
20260506071029 53 0.0 0.0 0.00 0.03 0.00 89 1004.6
20260506062049 49 0.0 0.0 0.00 0.03 0.00 96 1004.6
20260506061029 49 334 0.9 1.7 0.00 0.03 0.00 96 1004.7
20260506051029 47 0.0 0.0 0.00 0.03 0.00 97 1004.9
20260506045029 47 0.0 0.0 0.00 0.03 0.00 97 1004.8
20260506044029 46 0.0 0.0 0.00 0.03 0.00 97 1004.8
20260506043049 46 0.0 0.0 0.00 0.03 0.00 97 1004.7
20260506042049 47 0.0 0.0 0.00 0.03 0.00 97 1004.8
20260506041031 46 296 0.9 1.7 0.00 0.03 0.00 97 1005.0
20260506040029 46 0.0 0.0 0.00 0.03 0.00 97 1005.0
20260506035049 46 263 0.9 1.7 0.00 0.03 0.00 97 1005.1
20260506034029 47 0.0 0.0 0.00 0.03 0.00 97 1005.2
20260506033031 46 0.0 0.0 0.00 0.03 0.00 97 1005.3
20260506032031 47 0.0 0.0 0.00 0.03 0.00 97 1005.4
20260506031049 47 156 0.0 1.7 0.00 0.03 0.00 97 1005.3
20260506030029 47 0.0 0.0 0.00 0.03 0.00 97 1005.3
20260506025029 47 0.0 0.0 0.00 0.03 0.00 97 1005.5
20260506024029 47 156 0.0 1.7 0.00 0.03 0.00 97 1005.5
20260506023049 47 156 0.0 1.7 0.00 0.03 0.00 97 1005.6
20260506022030 48 0.0 0.0 0.00 0.03 0.00 97 1005.5
20260506021032 48 0.0 0.0 0.00 0.03 0.00 97 1005.7
20260506020051 48 0.0 0.0 0.00 0.03 0.00 97 1005.8
20260506015030 49 0.0 0.0 0.00 0.03 0.00 97 1005.9
20260506014032 48 0.0 0.0 0.00 0.03 0.00 97 1006.0
20260506013049 48 0.0 0.0 0.00 0.03 0.00 97 1006.1
20260506012032 48 0.0 0.0 0.00 0.03 0.00 97 1006.1
20260506011030 48 0.0 0.0 0.00 0.03 0.00 97 1006.2
20260506010031 48 0.0 0.0 0.00 0.03 0.00 97 1006.3
20260506005031 48 0.0 0.0 0.00 0.03 0.00 97 1006.4
20260506004050 48 0.0 0.0 0.00 0.03 0.00 97 1006.5
20260506003030 47 0.0 0.0 0.00 0.03 0.00 97 1006.4
20260506002030 48 0.0 0.0 0.00 0.03 0.00 97 1006.5
20260506001042 48 0.0 0.0 0.00 0.03 0.00 97 1006.5
20260506000029 48 0.0 0.0 0.00 0.03 0.00 97 1006.5
20260505235029 48 0.0 0.0 0.00 0.03 0.00 96 1006.6
20260505234029 49 0.0 0.0 0.00 0.03 0.00 96 1006.9
20260505233030 49 0.0 0.0 0.00 0.03 0.00 96 1007.0
20260505223530 49 156 0.0 1.7 0.00 0.03 0.00 96 1007.2
20260505222529 49 0.0 0.0 0.00 0.03 0.00 96 1007.3
20260505221530 50 0.0 0.0 0.00 0.03 0.00 96 1007.2
20260505221130 50 0.0 0.0 0.00 0.03 0.00 96 1007.2
20260505215550 49 0.0 0.0 0.00 0.03 0.03 96 1007.3
20260505214530 49 0.0 0.0 0.00 0.03 0.03 96 1007.4
20260505213542 49 141 0.9 2.6 0.00 0.03 0.03 96 1007.4
20260505212541 50 0.0 0.0 0.00 0.03 0.03 96 1007.4
20260505211530 50 0.0 0.0 0.02 0.03 0.03 95 1007.6
20260505210228 50 0.0 0.0 0.02 0.03 0.03 95 1007.6
20260505205144 51 0.0 0.0 0.02 0.03 0.03 95 1007.6
20260505204354 0 0.0 0.0 0.02 0.03 0.03